カタログに戻る

STARLINK-4334

運用中通信SSO
NORAD 53665·PAYLOAD·🇺🇸 United States

打ち上げ Aug 31, 2022 から Vandenberg Space Force Base

Loading…

次のパス (今後24時間)

TLE

最新Source: CelesTrak SupGP

元期: Sep 14, 2026, 20:54 UTC

1 53665C 22105T   26257.87131944  .00568960  00000+0  13797-1 0  2572
2 53665  97.5168 146.2567 0001535  94.2149 320.8168 15.40813418    11

AllMySatでSTARLINK-4334をリアルタイム追跡

Download on the App Store